This is the latest recevied weather packets stored in our database for station/object KC4MCQ-10. If no packets are shown the sender has not sent any weather packets the latest 10 day(s).
| Time | Temp. | Humidity | Pressure | Rain* | Wind** | Luminosity | Snow |
|---|---|---|---|---|---|---|---|
| 1787495734 | 28.33° C | 81% | 1016.9 hPa | 0 mm | 1.79 m/s, 313° | - | - |
| 1787495129 | 27.78° C | 82% | 1016.8 hPa | 0 mm | 1.79 m/s, 330° | - | - |
| 1787493277 | 27.22° C | 83% | 1016.6 hPa | 0 mm | 1.34 m/s, 247° | - | - |
| 1787492677 | 26.67° C | 84% | 1016.5 hPa | 0 mm | 0.45 m/s, 220° | - | - |
| 1787492075 | 26.67° C | 85% | 1016.7 hPa | 0 mm | 2.68 m/s, 259° | - | - |
| 1787491467 | 26.11° C | 86% | 1016.7 hPa | 0 mm | 0.89 m/s, 284° | - | - |
| 1787490859 | 26.11° C | 86% | 1016.7 hPa | 0 mm | 1.79 m/s, 284° | - | - |
| 1787490258 | 26.11° C | 86% | 1016.3 hPa | 0 mm | 0 m/s | - | - |
| 1787489657 | 25.56° C | 87% | 1016.5 hPa | 0 mm | 1.34 m/s, 317° | - | - |
| 1787489055 | 25.56° C | 87% | 1016.2 hPa | 0 mm | 0.45 m/s, 271° | - | - |
| 1787488446 | 25.56° C | 87% | 1016.1 hPa | 0 mm | 1.34 m/s, 218° | - | - |
| 1787487844 | 25.56° C | 88% | 1016.1 hPa | 0 mm | 0 m/s | - | - |
| 1787487210 | 25.56° C | 88% | 1015.8 hPa | 0 mm | 2.68 m/s, 273° | - | - |
| 1787486607 | 25.56° C | 88% | 1015.7 hPa | 0 mm | 0.89 m/s, 271° | - | - |
| 1787486006 | 25° C | 89% | 1015.6 hPa | 0 mm | 0.45 m/s, 238° | - | - |
| 1787485404 | 25° C | 89% | 1015.6 hPa | 0 mm | 0 m/s | - | - |
| 1787484781 | 25° C | 89% | 1015.7 hPa | 0 mm | 0.45 m/s, 275° | - | - |
| 1787484170 | 25° C | 90% | 1015.6 hPa | 0 mm | 1.34 m/s, 263° | - | - |
| 1787483540 | 24.44° C | 90% | 1015.6 hPa | 0 mm | 0.89 m/s, 256° | - | - |
| 1787482939 | 25° C | 90% | 1015.5 hPa | 0 mm | 0.45 m/s, 238° | - | - |
| 1787482283 | 25° C | 89% | 1015.2 hPa | 0 mm | 0.45 m/s, 219° | - | - |
| 1787481681 | 25° C | 89% | 1015.2 hPa | 0 mm | 1.34 m/s, 186° | - | - |
| 1787481075 | 25° C | 89% | 1014.9 hPa | 0 mm | 0 m/s | - | - |
| 1787479772 | 25° C | 88% | 1014.7 hPa | 0 mm | 0.45 m/s, 191° | - | - |
| 1787479169 | 25.56° C | 88% | 1014.6 hPa | 0 mm | 0.45 m/s, 236° | - | - |
* Rain latest 24 hours (hover to see other rain measurements)
** Current wind speed in m/s (hover to see current wind gust speed)